Regional Weather Roundup
Issued by NWS Jackson, KY

Home | Current Version | Previous Version | Text Only | Print | Product List | Glossary On
Versions: 1 2 3 4 5 6 7 8 9 10 11 12 13 14 15 16 17 18 19 20 21 22 23 24 25 26 27 28 29 30 31 32 33 34 35 36 37 38 39 40 41 42 43 44 45 46 47 48 49 50
000
ASUS43 KJKL 271519
RWRJKL

EAST KENTUCKY HOURLY WEATHER ROUNDUP
NATIONAL WEATHER SERVICE JACKSON KY
1100 AM EDT WED AUG 27 2014

NOTE: "FAIR" INDICATES FEW OR NO CLOUDS BELOW 12,000 FEET WITH
NO SIGNIFICANT WEATHER AND/OR OBSTRUCTIONS TO VISIBILITY.

* THESE REPORTS ARE NOT UNDER NWS QUALITY CONTROL AND MAY NOT
  REPORT WEATHER SUCH AS PRECIPITATION AND FOG.

KYZ079-080-083-085-087-088-110-112-115-119-120-271600
...EASTERN KENTUCKY...

CITY           SKY/WX    TMP DP  RH WIND       PRES   REMARKS
JACKSON        SUNNY     75  64  68 CALM      30.16R
LONDON         SUNNY     78  66  66 VRB5      30.16R
SOMERSET*      MOSUNNY   77  66  69 CALM      30.15S
MONTICELLO*    SUNNY     80  68  67 CALM      30.16R
MIDDLESBORO*   MOSUNNY   69  65  85 CALM      30.17S
HARLAN APT*    SUNNY     72  63  73 MISG      30.17F
HAZARD APT*    SUNNY     77  66  69 SE3       30.16
BLACK MTN*       N/A     66  61  82 N3          N/A
PIKEVILLE APT* SUNNY     68  64  88 CALM      30.18R
BIG SANDY*     SUNNY     73  65  77 SW3       30.16R
MOREHEAD APT*  SUNNY     81  66  61 VRB3      30.15F
ASHLAND*       SUNNY     77  66  69 CALM      30.10
$$

KYZ035-036-041-042-044-050-067-078-099-271600
...CENTRAL KENTUCKY...

CITY           SKY/WX    TMP DP  RH WIND       PRES   REMARKS
MT STERLING*   SUNNY     81  64  57 CALM      30.15S
FLEMING/MASON* SUNNY     82  69  64 SW5       30.13F
DANVILLE*      SUNNY     81  66  61 CALM      30.15S
RICHMOND*      SUNNY     81  64  57 CALM      30.14S
LEXINGTON      SUNNY     82  67  60 S3        30.14R
FRANKFORT      SUNNY     83  69  62 CALM      30.12R
$$

KYZ091>093-OHZ055-061-077-WVZ005-015-034-035-042-271600
...SOUTHERN OHIO/WEST VIRGINIA...

CITY           SKY/WX    TMP DP  RH WIND       PRES   REMARKS
COVINGTON      MOSUNNY   84  68  58 N5        30.12R
COLUMBUS       PTSUNNY   82  68  62 CALM      30.09S
DAYTON         MOSUNNY   81  69  67 N5        30.13R
WILMINGTON     MOSUNNY   81  69  67 NW5       30.11S
HUNTINGTON     SUNNY     76  66  71 CALM      30.12S
CHARLESTON     MOSUNNY   76  62  62 CALM      30.13F
PINEVILLE*     SUNNY     74  63  68 MISG      30.23S
BECKLEY        SUNNY     74  56  53 VRB6      30.20S
BLUEFIELD      SUNNY     74  57  55 VRB5      30.22S
$$

VAZ002-007-008-TNZ017-027-036-066-071-271600
...SOUTHWEST VIRGINIA/EAST TENNESSEE...

CITY           SKY/WX    TMP DP  RH WIND       PRES   REMARKS
WISE*          SUNNY     73  59  60 NW5       30.23S
JONESVILLE*      N/A     75  61  60 CALM      30.19S
ABINGDON*      SUNNY     75  57  53 CALM      30.19S
BRISTOL        MOSUNNY   72  60  66 CALM      30.18S
KNOXVILLE      MOSUNNY   77  65  66 CALM      30.14S
OAK RIDGE      SUNNY     77  67  71 VRB3      30.16R
CROSSVILLE     MOSUNNY   78  66  66 CALM      30.18R
NASHVILLE      MOSUNNY   85  71  63 NW3       30.12R HX  90
$$

...KEY TO REMARKS...
VSB - VISIBILITY IN MILES
WCI - WIND CHILL INDEX
HX  - HEAT INDEX

$$



USA.gov is the U.S. government's official web portal to all federal, state and local government web resources and services.